contact:dominique.lefevre@mio.osupytheas.fr, maurice.libes@osupytheas.fr, didier.mallarino@osupytheas.fr
Project:EMSO http://www.emso-fr.org/EMSO-France
Depth: 2436.0 m
Title:EMSO Ligure Ouest : Data MII capteur CSTAR
DateTime,Latitude,Longitude,Instrument_Serial,Reference_Counts,Signal_Counts,Corrected_Signal_raw_counts,Calculated_Beam_c_inverse_meters,Internal_thermistor_counts
DateTime,Latitude,Longitude,Instrument_Serial,Reference_Counts,Signal_Counts,Corrected_Signal_raw_counts,Calculated_Beam_c_inverse_meters,Internal_thermistor_counts
2023-09-17T00:00:49,42.805,6.029,CST-1368DR,4166,4560,11607,01.187,553
2023-09-17T00:03:51,42.805,6.029,CST-1368DR,4166,4559,11603,01.188,552
2023-09-17T00:06:52,42.805,6.029,CST-1368DR,4166,4560,11605,01.187,553
2023-09-17T00:09:54,42.805,6.029,CST-1368DR,4166,4560,11607,01.187,552
2023-09-17T00:12:55,42.805,6.029,CST-1368DR,4166,4559,11603,01.188,552
2023-09-17T00:15:57,42.805,6.029,CST-1368DR,4166,4560,11605,01.187,553
2023-09-17T00:18:59,42.805,6.029,CST-1368DR,4166,4560,11605,01.187,552
2023-09-17T00:22:00,42.805,6.029,CST-1368DR,4166,4560,11605,01.187,552
2023-09-17T00:25:02,42.805,6.029,CST-1368DR,4166,4558,11602,01.188,552
2023-09-17T00:28:03,42.805,6.029,CST-1368DR,4166,4558,11601,01.189,553
2023-09-17T00:31:05,42.805,6.029,CST-1368DR,4166,4560,11605,01.187,552
2023-09-17T00:34:07,42.805,6.029,CST-1368DR,4166,4558,11601,01.189,553
2023-09-17T00:37:08,42.805,6.029,CST-1368DR,4166,4559,11602,01.188,552
2023-09-17T00:40:10,42.805,6.029,CST-1368DR,4166,4560,11605,01.187,553
2023-09-17T00:43:11,42.805,6.029,CST-1368DR,4166,4560,11605,01.187,552
2023-09-17T00:46:13,42.805,6.029,CST-1368DR,4166,4558,11602,01.188,553
2023-09-17T00:49:14,42.805,6.029,CST-1368DR,4166,4557,11598,01.190,552
2023-09-17T00:52:16,42.805,6.029,CST-1368DR,4166,4557,11599,01.190,552
2023-09-17T00:55:18,42.805,6.029,CST-1368DR,4166,4559,11604,01.188,553
2023-09-17T00:58:19,42.805,6.029,CST-1368DR,4166,4558,11602,01.188,553
2023-09-17T01:01:21,42.805,6.029,CST-1368DR,4166,4559,11603,01.188,552
2023-09-17T01:04:22,42.805,6.029,CST-1368DR,4166,4558,11600,01.189,553
2023-09-17T01:07:24,42.805,6.029,CST-1368DR,4166,4559,11603,01.188,552
2023-09-17T01:10:25,42.805,6.029,CST-1368DR,4166,4558,11601,01.189,552
2023-09-17T01:13:27,42.805,6.029,CST-1368DR,4166,4558,11600,01.189,552
2023-09-17T01:16:29,42.805,6.029,CST-1368DR,4166,4558,11602,01.188,552
2023-09-17T01:19:30,42.805,6.029,CST-1368DR,4166,4558,11601,01.189,553
2023-09-17T01:22:32,42.805,6.029,CST-1368DR,4166,4559,11602,01.188,552
2023-09-17T01:25:33,42.805,6.029,CST-1368DR,4166,4559,11603,01.188,553
2023-09-17T01:28:35,42.805,6.029,CST-1368DR,4166,4558,11601,01.189,552
2023-09-17T01:31:36,42.805,6.029,CST-1368DR,4166,4559,11603,01.188,553
2023-09-17T01:34:38,42.805,6.029,CST-1368DR,4166,4559,11603,01.188,553
2023-09-17T01:37:40,42.805,6.029,CST-1368DR,4166,4559,11604,01.188,552
2023-09-17T01:40:41,42.805,6.029,CST-1368DR,4166,4559,11602,01.188,553
2023-09-17T01:43:43,42.805,6.029,CST-1368DR,4166,4558,11602,01.188,553
2023-09-17T01:46:44,42.805,6.029,CST-1368DR,4166,4559,11602,01.188,553
2023-09-17T01:49:46,42.805,6.029,CST-1368DR,4166,4558,11600,01.189,553
2023-09-17T01:52:48,42.805,6.029,CST-1368DR,4166,4558,11600,01.189,552
2023-09-17T01:55:49,42.805,6.029,CST-1368DR,4166,4558,11601,01.189,553
2023-09-17T01:58:51,42.805,6.029,CST-1368DR,4166,4558,11601,01.189,553
2023-09-17T02:01:52,42.805,6.029,CST-1368DR,4166,4557,11599,01.190,553
2023-09-17T02:04:54,42.805,6.029,CST-1368DR,4166,4557,11598,01.190,553
2023-09-17T02:07:55,42.805,6.029,CST-1368DR,4166,4557,11599,01.190,552
2023-09-17T02:10:57,42.805,6.029,CST-1368DR,4166,4557,11597,01.190,553
2023-09-17T02:13:59,42.805,6.029,CST-1368DR,4166,4557,11598,01.190,553
2023-09-17T02:17:00,42.805,6.029,CST-1368DR,4166,4554,11591,01.192,553
2023-09-17T02:20:02,42.805,6.029,CST-1368DR,4166,4554,11589,01.193,553
2023-09-17T02:23:03,42.805,6.029,CST-1368DR,4166,4554,11591,01.192,553
2023-09-17T02:26:05,42.805,6.029,CST-1368DR,4166,4555,11594,01.191,552
2023-09-17T02:29:06,42.805,6.029,CST-1368DR,4166,4554,11590,01.193,552
2023-09-17T02:32:08,42.805,6.029,CST-1368DR,4166,4553,11589,01.193,552
2023-09-17T02:35:10,42.805,6.029,CST-1368DR,4166,4554,11589,01.193,552
2023-09-17T02:38:11,42.805,6.029,CST-1368DR,4166,4554,11590,01.193,553
2023-09-17T02:41:13,42.805,6.029,CST-1368DR,4166,4553,11588,01.193,553
2023-09-17T02:44:14,42.805,6.029,CST-1368DR,4166,4553,11588,01.193,552
2023-09-17T02:47:16,42.805,6.029,CST-1368DR,4166,4553,11588,01.193,553
2023-09-17T02:50:18,42.805,6.029,CST-1368DR,4166,4552,11584,01.195,553
2023-09-17T02:53:19,42.805,6.029,CST-1368DR,4166,4553,11588,01.193,552
2023-09-17T02:56:21,42.805,6.029,CST-1368DR,4166,4553,11589,01.193,552
2023-09-17T02:59:22,42.805,6.029,CST-1368DR,4166,4551,11583,01.195,553
2023-09-17T03:02:24,42.805,6.029,CST-1368DR,4166,4552,11586,01.194,553
2023-09-17T03:05:25,42.805,6.029,CST-1368DR,4166,4552,11585,01.194,553
2023-09-17T03:08:27,42.805,6.029,CST-1368DR,4166,4553,11588,01.193,552
2023-09-17T03:11:29,42.805,6.029,CST-1368DR,4166,4553,11587,01.194,553
2023-09-17T03:14:30,42.805,6.029,CST-1368DR,4166,4552,11586,01.194,553
2023-09-17T03:17:32,42.805,6.029,CST-1368DR,4166,4551,11583,01.195,552
2023-09-17T03:20:33,42.805,6.029,CST-1368DR,4166,4552,11584,01.195,552
2023-09-17T03:23:35,42.805,6.029,CST-1368DR,4166,4552,11584,01.195,552
2023-09-17T03:26:36,42.805,6.029,CST-1368DR,4166,4553,11588,01.193,553
2023-09-17T03:29:38,42.805,6.029,CST-1368DR,4166,4552,11584,01.195,553
2023-09-17T03:32:40,42.805,6.029,CST-1368DR,4166,4552,11585,01.194,553
2023-09-17T03:35:41,42.805,6.029,CST-1368DR,4166,4551,11583,01.195,552
2023-09-17T03:38:43,42.805,6.029,CST-1368DR,4166,4553,11588,01.193,552
2023-09-17T03:41:44,42.805,6.029,CST-1368DR,4166,4552,11584,01.195,552
2023-09-17T03:44:46,42.805,6.029,CST-1368DR,4166,4552,11585,01.194,552
2023-09-17T03:47:48,42.805,6.029,CST-1368DR,4166,4552,11585,01.194,552
2023-09-17T03:50:49,42.805,6.029,CST-1368DR,4166,4551,11583,01.195,553
2023-09-17T03:53:51,42.805,6.029,CST-1368DR,4166,4551,11582,01.195,553
2023-09-17T03:56:52,42.805,6.029,CST-1368DR,4166,4552,11585,01.194,552
2023-09-17T03:59:54,42.805,6.029,CST-1368DR,4166,4553,11588,01.193,553
2023-09-17T04:02:55,42.805,6.029,CST-1368DR,4166,4551,11583,01.195,553
2023-09-17T04:05:57,42.805,6.029,CST-1368DR,4166,4551,11584,01.195,552
2023-09-17T04:08:59,42.805,6.029,CST-1368DR,4166,4539,11553,01.205,553
2023-09-17T04:12:00,42.805,6.029,CST-1368DR,4166,4550,11581,01.196,553
2023-09-17T04:15:02,42.805,6.029,CST-1368DR,4166,4552,11584,01.195,553
2023-09-17T04:18:03,42.805,6.029,CST-1368DR,4166,4550,11581,01.196,553
2023-09-17T04:21:05,42.805,6.029,CST-1368DR,4166,4551,11582,01.195,553
2023-09-17T04:24:06,42.805,6.029,CST-1368DR,4166,4551,11582,01.195,552
2023-09-17T04:27:08,42.805,6.029,CST-1368DR,4166,4550,11581,01.196,552
2023-09-17T04:30:12,42.805,6.029,CST-1368DR,4166,4550,11581,01.196,552
2023-09-17T04:33:14,42.805,6.029,CST-1368DR,4166,4550,11581,01.196,552
2023-09-17T04:36:15,42.805,6.029,CST-1368DR,4166,4550,11581,01.196,553
2023-09-17T04:39:17,42.805,6.029,CST-1368DR,4166,4550,11581,01.196,552
2023-09-17T04:42:19,42.805,6.029,CST-1368DR,4166,4550,11579,01.196,552
2023-09-17T04:45:20,42.805,6.029,CST-1368DR,4166,4551,11582,01.195,553
2023-09-17T04:48:22,42.805,6.029,CST-1368DR,4166,4550,11581,01.196,553
2023-09-17T04:51:23,42.805,6.029,CST-1368DR,4166,4550,11581,01.196,553
2023-09-17T04:54:25,42.805,6.029,CST-1368DR,4166,4551,11582,01.195,553
2023-09-17T04:57:26,42.805,6.029,CST-1368DR,4166,4550,11581,01.196,553
2023-09-17T05:00:28,42.805,6.029,CST-1368DR,4166,4548,11574,01.198,552
2023-09-17T05:03:30,42.805,6.029,CST-1368DR,4166,4550,11581,01.196,553
2023-09-17T05:06:31,42.805,6.029,CST-1368DR,4166,4545,11568,01.200,553
2023-09-17T05:09:33,42.805,6.029,CST-1368DR,4166,4550,11579,01.196,553
2023-09-17T05:12:34,42.805,6.029,CST-1368DR,4166,4550,11581,01.196,552
2023-09-17T05:15:36,42.805,6.029,CST-1368DR,4166,4551,11582,01.195,553
2023-09-17T05:18:38,42.805,6.029,CST-1368DR,4166,4550,11579,01.196,552
2023-09-17T05:21:39,42.805,6.029,CST-1368DR,4166,4550,11581,01.196,552
2023-09-17T05:24:41,42.805,6.029,CST-1368DR,4166,4550,11581,01.196,553
2023-09-17T05:27:42,42.805,6.029,CST-1368DR,4166,4546,11570,01.200,553
2023-09-17T05:30:44,42.805,6.029,CST-1368DR,4166,4551,11584,01.195,552
2023-09-17T05:33:45,42.805,6.029,CST-1368DR,4166,4549,11577,01.197,553
2023-09-17T05:36:47,42.805,6.029,CST-1368DR,4166,4548,11576,01.197,552
2023-09-17T05:39:49,42.805,6.029,CST-1368DR,4166,4550,11581,01.196,553
2023-09-17T05:42:50,42.805,6.029,CST-1368DR,4166,4550,11580,01.196,552
2023-09-17T05:45:52,42.805,6.029,CST-1368DR,4166,4551,11582,01.195,553
2023-09-17T05:48:53,42.805,6.029,CST-1368DR,4166,4550,11581,01.196,553
2023-09-17T05:51:55,42.805,6.029,CST-1368DR,4166,4550,11581,01.196,553
2023-09-17T05:54:56,42.805,6.029,CST-1368DR,4166,4551,11582,01.195,552
2023-09-17T05:57:58,42.805,6.029,CST-1368DR,4166,4550,11579,01.196,553
2023-09-17T06:01:00,42.805,6.029,CST-1368DR,4166,4549,11577,01.197,553
2023-09-17T06:04:01,42.805,6.029,CST-1368DR,4166,4550,11579,01.196,552
2023-09-17T06:07:03,42.805,6.029,CST-1368DR,4166,4550,11579,01.196,553
2023-09-17T06:10:04,42.805,6.029,CST-1368DR,4166,4549,11578,01.197,553
2023-09-17T06:13:06,42.805,6.029,CST-1368DR,4166,4550,11579,01.196,553
2023-09-17T06:16:08,42.805,6.029,CST-1368DR,4166,4549,11577,01.197,553
2023-09-17T06:19:09,42.805,6.029,CST-1368DR,4166,4550,11581,01.196,553
2023-09-17T06:22:11,42.805,6.029,CST-1368DR,4166,4550,11580,01.196,552
2023-09-17T06:25:12,42.805,6.029,CST-1368DR,4166,4549,11579,01.196,553
2023-09-17T06:28:14,42.805,6.029,CST-1368DR,4166,4549,11579,01.196,552
2023-09-17T06:31:15,42.805,6.029,CST-1368DR,4166,4549,11579,01.196,552
2023-09-17T06:34:17,42.805,6.029,CST-1368DR,4166,4550,11579,01.196,552
2023-09-17T06:37:19,42.805,6.029,CST-1368DR,4166,4549,11579,01.196,552
2023-09-17T06:40:20,42.805,6.029,CST-1368DR,4166,4549,11579,01.196,553
2023-09-17T06:43:22,42.805,6.029,CST-1368DR,4166,4549,11579,01.196,553
2023-09-17T06:46:23,42.805,6.029,CST-1368DR,4166,4549,11579,01.196,553
2023-09-17T06:49:25,42.805,6.029,CST-1368DR,4166,4548,11575,01.198,553
2023-09-17T06:52:26,42.805,6.029,CST-1368DR,4166,4549,11579,01.196,552
2023-09-17T06:55:28,42.805,6.029,CST-1368DR,4166,4550,11580,01.196,553
2023-09-17T06:58:30,42.805,6.029,CST-1368DR,4166,4550,11579,01.196,553
2023-09-17T07:01:31,42.805,6.029,CST-1368DR,4166,4549,11579,01.196,553
2023-09-17T07:04:33,42.805,6.029,CST-1368DR,4166,4548,11575,01.198,553
2023-09-17T07:07:34,42.805,6.029,CST-1368DR,4166,4548,11574,01.198,552
2023-09-17T07:10:36,42.805,6.029,CST-1368DR,4166,4547,11572,01.199,552
2023-09-17T07:13:37,42.805,6.029,CST-1368DR,4166,4549,11577,01.197,553
2023-09-17T07:16:39,42.805,6.029,CST-1368DR,4166,4549,11577,01.197,552
2023-09-17T07:19:41,42.805,6.029,CST-1368DR,4166,4549,11579,01.196,553
2023-09-17T07:22:42,42.805,6.029,CST-1368DR,4166,4548,11576,01.197,552
2023-09-17T07:25:44,42.805,6.029,CST-1368DR,4166,4549,11577,01.197,553
2023-09-17T07:28:45,42.805,6.029,CST-1368DR,4166,4548,11576,01.197,552
2023-09-17T07:31:47,42.805,6.029,CST-1368DR,4166,4548,11575,01.198,553
2023-09-17T07:34:49,42.805,6.029,CST-1368DR,4166,4547,11573,01.198,553
2023-09-17T07:37:50,42.805,6.029,CST-1368DR,4166,4547,11574,01.198,553
2023-09-17T07:40:52,42.805,6.029,CST-1368DR,4166,4549,11579,01.196,553
2023-09-17T07:43:53,42.805,6.029,CST-1368DR,4166,4549,11577,01.197,553
2023-09-17T07:46:55,42.805,6.029,CST-1368DR,4166,4548,11574,01.198,552
2023-09-17T07:49:56,42.805,6.029,CST-1368DR,4166,4548,11575,01.198,552
2023-09-17T07:52:58,42.805,6.029,CST-1368DR,4166,4546,11571,01.199,553
2023-09-17T07:56:00,42.805,6.029,CST-1368DR,4166,4548,11575,01.198,552
2023-09-17T07:59:01,42.805,6.029,CST-1368DR,4166,4548,11576,01.197,552
2023-09-17T08:02:03,42.805,6.029,CST-1368DR,4166,4549,11577,01.197,553
2023-09-17T08:05:04,42.805,6.029,CST-1368DR,4166,4547,11572,01.199,553
2023-09-17T08:08:06,42.805,6.029,CST-1368DR,4166,4549,11578,01.197,553
2023-09-17T08:11:07,42.805,6.029,CST-1368DR,4166,4548,11576,01.197,553
2023-09-17T08:14:09,42.805,6.029,CST-1368DR,4166,4544,11565,01.201,552
2023-09-17T08:17:11,42.805,6.029,CST-1368DR,4166,4548,11575,01.198,553
2023-09-17T08:20:12,42.805,6.029,CST-1368DR,4166,4548,11576,01.197,553
2023-09-17T08:23:14,42.805,6.029,CST-1368DR,4166,4548,11575,01.198,553
2023-09-17T08:26:15,42.805,6.029,CST-1368DR,4166,4548,11575,01.198,552
2023-09-17T08:29:17,42.805,6.029,CST-1368DR,4166,4550,11579,01.196,552
2023-09-17T08:32:19,42.805,6.029,CST-1368DR,4166,4549,11578,01.197,553
2023-09-17T08:35:20,42.805,6.029,CST-1368DR,4166,4548,11575,01.198,553
2023-09-17T08:38:22,42.805,6.029,CST-1368DR,4166,4549,11579,01.196,553
2023-09-17T08:41:23,42.805,6.029,CST-1368DR,4166,4550,11580,01.196,552
2023-09-17T08:44:25,42.805,6.029,CST-1368DR,4166,4548,11575,01.198,553
2023-09-17T08:47:26,42.805,6.029,CST-1368DR,4166,4548,11576,01.197,553
2023-09-17T08:50:28,42.805,6.029,CST-1368DR,4166,4549,11577,01.197,553
2023-09-17T08:53:30,42.805,6.029,CST-1368DR,4166,4548,11575,01.198,553
2023-09-17T08:56:31,42.805,6.029,CST-1368DR,4166,4549,11577,01.197,552
2023-09-17T08:59:33,42.805,6.029,CST-1368DR,4166,4548,11575,01.198,552
2023-09-17T09:02:34,42.805,6.029,CST-1368DR,4166,4549,11578,01.197,552
2023-09-17T09:05:36,42.805,6.029,CST-1368DR,4166,4549,11577,01.197,552
2023-09-17T09:08:38,42.805,6.029,CST-1368DR,4166,4549,11578,01.197,553
2023-09-17T09:11:39,42.805,6.029,CST-1368DR,4166,4549,11577,01.197,553
2023-09-17T09:14:41,42.805,6.029,CST-1368DR,4166,4548,11575,01.198,553
2023-09-17T09:17:42,42.805,6.029,CST-1368DR,4166,4550,11580,01.196,553
2023-09-17T09:20:44,42.805,6.029,CST-1368DR,4166,4548,11575,01.198,553
2023-09-17T09:23:45,42.805,6.029,CST-1368DR,4166,4549,11579,01.196,553
2023-09-17T09:26:47,42.805,6.029,CST-1368DR,4166,4549,11578,01.197,552
2023-09-17T09:29:49,42.805,6.029,CST-1368DR,4165,4547,11575,01.198,552
2023-09-17T09:32:50,42.805,6.029,CST-1368DR,4166,4548,11576,01.197,552
2023-09-17T09:35:52,42.805,6.029,CST-1368DR,4166,4549,11577,01.197,553
2023-09-17T09:38:53,42.805,6.029,CST-1368DR,4166,4548,11574,01.198,553
2023-09-17T09:41:55,42.805,6.029,CST-1368DR,4166,4549,11578,01.197,553
2023-09-17T09:44:56,42.805,6.029,CST-1368DR,4166,4549,11579,01.196,552
2023-09-17T09:47:58,42.805,6.029,CST-1368DR,4166,4548,11574,01.198,552
2023-09-17T09:51:00,42.805,6.029,CST-1368DR,4166,4547,11573,01.198,552
2023-09-17T09:54:01,42.805,6.029,CST-1368DR,4166,4549,11577,01.197,552
2023-09-17T09:57:03,42.805,6.029,CST-1368DR,4166,4548,11574,01.198,553
2023-09-17T10:00:04,42.805,6.029,CST-1368DR,4166,4547,11572,01.199,553
2023-09-17T10:03:06,42.805,6.029,CST-1368DR,4166,4548,11575,01.198,553
2023-09-17T10:06:08,42.805,6.029,CST-1368DR,4166,4548,11576,01.197,553
2023-09-17T10:09:09,42.805,6.029,CST-1368DR,4166,4549,11578,01.197,552
2023-09-17T10:12:11,42.805,6.029,CST-1368DR,4166,4548,11576,01.197,552
2023-09-17T10:15:12,42.805,6.029,CST-1368DR,4165,4548,11577,01.197,553
2023-09-17T10:18:14,42.805,6.029,CST-1368DR,4166,4547,11572,01.199,553
2023-09-17T10:21:15,42.805,6.029,CST-1368DR,4166,4547,11573,01.198,552
2023-09-17T10:24:17,42.805,6.029,CST-1368DR,4166,4546,11570,01.200,553
2023-09-17T10:27:19,42.805,6.029,CST-1368DR,4166,4548,11575,01.198,553
2023-09-17T10:30:20,42.805,6.029,CST-1368DR,4166,4546,11571,01.199,553
2023-09-17T10:33:22,42.805,6.029,CST-1368DR,4165,4548,11577,01.197,553
2023-09-17T10:36:23,42.805,6.029,CST-1368DR,4165,4548,11579,01.196,553
2023-09-17T10:39:25,42.805,6.029,CST-1368DR,4165,4548,11578,01.197,553
2023-09-17T10:42:27,42.805,6.029,CST-1368DR,4165,4548,11577,01.197,553
2023-09-17T10:45:28,42.805,6.029,CST-1368DR,4165,4548,11577,01.197,553
2023-09-17T10:48:30,42.805,6.029,CST-1368DR,4165,4536,11547,01.207,552
2023-09-17T10:51:31,42.805,6.029,CST-1368DR,4166,4548,11575,01.198,552
2023-09-17T10:54:33,42.805,6.029,CST-1368DR,4165,4547,11576,01.197,553
2023-09-17T10:57:34,42.805,6.029,CST-1368DR,4165,4548,11577,01.197,553
2023-09-17T11:00:36,42.805,6.029,CST-1368DR,4165,4548,11579,01.196,552
2023-09-17T11:03:38,42.805,6.029,CST-1368DR,4165,4546,11574,01.198,552
2023-09-17T11:06:39,42.805,6.029,CST-1368DR,4165,4547,11576,01.197,552
2023-09-17T11:09:41,42.805,6.029,CST-1368DR,4165,4547,11575,01.198,553
2023-09-17T11:12:42,42.805,6.029,CST-1368DR,4165,4547,11576,01.197,552
2023-09-17T11:15:44,42.805,6.029,CST-1368DR,4165,4546,11574,01.198,552
2023-09-17T11:18:45,42.805,6.029,CST-1368DR,4165,4547,11574,01.198,552
2023-09-17T11:21:47,42.805,6.029,CST-1368DR,4165,4547,11576,01.197,552
2023-09-17T11:24:49,42.805,6.029,CST-1368DR,4165,4548,11577,01.197,553
2023-09-17T11:27:50,42.805,6.029,CST-1368DR,4165,4548,11577,01.197,552
2023-09-17T11:30:52,42.805,6.029,CST-1368DR,4165,4547,11576,01.197,553
2023-09-17T11:33:53,42.805,6.029,CST-1368DR,4165,4548,11577,01.197,553
2023-09-17T11:36:55,42.805,6.029,CST-1368DR,4165,4547,11574,01.198,553
2023-09-17T11:39:57,42.805,6.029,CST-1368DR,4165,4546,11574,01.198,553
2023-09-17T11:42:58,42.805,6.029,CST-1368DR,4165,4547,11576,01.197,553
2023-09-17T11:46:00,42.805,6.029,CST-1368DR,4165,4548,11577,01.197,552
2023-09-17T11:49:01,42.805,6.029,CST-1368DR,4165,4544,11569,01.200,553
2023-09-17T11:52:03,42.805,6.029,CST-1368DR,4165,4547,11576,01.197,553
2023-09-17T11:55:04,42.805,6.029,CST-1368DR,4165,4544,11569,01.200,552
2023-09-17T11:58:06,42.805,6.029,CST-1368DR,4165,4548,11577,01.197,552
2023-09-17T12:01:08,42.805,6.029,CST-1368DR,4165,4547,11574,01.198,552
2023-09-17T12:04:09,42.805,6.029,CST-1368DR,4165,4547,11576,01.197,552
2023-09-17T12:07:11,42.805,6.029,CST-1368DR,4165,4548,11578,01.197,553
2023-09-17T12:10:12,42.805,6.029,CST-1368DR,4165,4548,11577,01.197,553
2023-09-17T12:13:14,42.805,6.029,CST-1368DR,4165,4547,11574,01.198,552
2023-09-17T12:16:15,42.805,6.029,CST-1368DR,4165,4545,11570,01.200,552
2023-09-17T12:19:17,42.805,6.029,CST-1368DR,4165,4545,11569,01.200,552
2023-09-17T12:22:19,42.805,6.029,CST-1368DR,4165,4546,11574,01.198,553
2023-09-17T12:25:20,42.805,6.029,CST-1368DR,4165,4548,11577,01.197,552
2023-09-17T12:28:22,42.805,6.029,CST-1368DR,4165,4548,11577,01.197,552
2023-09-17T12:31:26,42.805,6.029,CST-1368DR,4165,4548,11577,01.197,552
2023-09-17T12:34:27,42.805,6.029,CST-1368DR,4165,4547,11576,01.197,552
2023-09-17T12:37:29,42.805,6.029,CST-1368DR,4165,4546,11573,01.198,552
2023-09-17T12:40:31,42.805,6.029,CST-1368DR,4164,4546,11576,01.197,552
2023-09-17T12:43:32,42.805,6.029,CST-1368DR,4165,4546,11573,01.198,552
2023-09-17T12:46:34,42.805,6.029,CST-1368DR,4165,4546,11573,01.198,552
2023-09-17T12:49:35,42.805,6.029,CST-1368DR,4165,4544,11569,01.200,552
2023-09-17T12:52:37,42.805,6.029,CST-1368DR,4165,4546,11572,01.199,552
2023-09-17T12:55:38,42.805,6.029,CST-1368DR,4165,4546,11573,01.198,552
2023-09-17T12:58:40,42.805,6.029,CST-1368DR,4165,4546,11573,01.198,552
2023-09-17T13:01:42,42.805,6.029,CST-1368DR,4165,4546,11574,01.198,552
2023-09-17T13:04:43,42.805,6.029,CST-1368DR,4165,4544,11569,01.200,553
2023-09-17T13:07:45,42.805,6.029,CST-1368DR,4165,4544,11568,01.200,553
2023-09-17T13:10:46,42.805,6.029,CST-1368DR,4164,4545,11572,01.199,552
2023-09-17T13:13:48,42.805,6.029,CST-1368DR,4165,4547,11574,01.198,553
2023-09-17T13:16:50,42.805,6.029,CST-1368DR,4165,4547,11576,01.197,552
2023-09-17T13:19:51,42.805,6.029,CST-1368DR,4165,4547,11575,01.198,552
2023-09-17T13:22:53,42.805,6.029,CST-1368DR,4165,4546,11574,01.198,553
2023-09-17T13:25:54,42.805,6.029,CST-1368DR,4165,4547,11575,01.198,553
2023-09-17T13:28:56,42.805,6.029,CST-1368DR,4165,4547,11575,01.198,553
2023-09-17T13:31:57,42.805,6.029,CST-1368DR,4165,4547,11575,01.198,552
2023-09-17T13:34:59,42.805,6.029,CST-1368DR,4165,4546,11572,01.199,552
2023-09-17T13:38:01,42.805,6.029,CST-1368DR,4165,4547,11575,01.198,553
2023-09-17T13:41:02,42.805,6.029,CST-1368DR,4165,4547,11574,01.198,552
2023-09-17T13:44:04,42.805,6.029,CST-1368DR,4165,4545,11570,01.200,552
2023-09-17T13:47:05,42.805,6.029,CST-1368DR,4165,4547,11576,01.197,553
2023-09-17T13:50:07,42.805,6.029,CST-1368DR,4165,4547,11576,01.197,553
2023-09-17T13:53:08,42.805,6.029,CST-1368DR,4165,4547,11576,01.197,553
2023-09-17T13:56:10,42.805,6.029,CST-1368DR,4165,4546,11574,01.198,552
2023-09-17T13:59:12,42.805,6.029,CST-1368DR,4165,4546,11572,01.199,553
2023-09-17T14:02:13,42.805,6.029,CST-1368DR,4165,4547,11575,01.198,553
2023-09-17T14:05:15,42.805,6.029,CST-1368DR,4165,4545,11569,01.200,553
2023-09-17T14:08:16,42.805,6.029,CST-1368DR,4165,4547,11576,01.197,552
2023-09-17T14:11:18,42.805,6.029,CST-1368DR,4165,4548,11577,01.197,553
2023-09-17T14:14:19,42.805,6.029,CST-1368DR,4165,4547,11576,01.197,553
2023-09-17T14:17:21,42.805,6.029,CST-1368DR,4165,4547,11575,01.198,552
2023-09-17T14:20:23,42.805,6.029,CST-1368DR,4165,4547,11576,01.197,552
2023-09-17T14:23:24,42.805,6.029,CST-1368DR,4165,4547,11576,01.197,553
2023-09-17T14:26:26,42.805,6.029,CST-1368DR,4165,4547,11576,01.197,553
2023-09-17T14:29:27,42.805,6.029,CST-1368DR,4165,4546,11574,01.198,553
2023-09-17T14:32:29,42.805,6.029,CST-1368DR,4165,4547,11576,01.197,553
2023-09-17T14:35:31,42.805,6.029,CST-1368DR,4165,4547,11574,01.198,552
2023-09-17T14:38:32,42.805,6.029,CST-1368DR,4165,4517,11498,01.224,552
2023-09-17T14:41:34,42.805,6.029,CST-1368DR,4165,4546,11573,01.198,552
2023-09-17T14:44:35,42.805,6.029,CST-1368DR,4165,4547,11574,01.198,553
2023-09-17T14:47:37,42.805,6.029,CST-1368DR,4165,4545,11571,01.199,552
2023-09-17T14:50:39,42.805,6.029,CST-1368DR,4165,4546,11572,01.199,552
2023-09-17T14:53:40,42.805,6.029,CST-1368DR,4165,4547,11575,01.198,553
2023-09-17T14:56:42,42.805,6.029,CST-1368DR,4165,4547,11574,01.198,552
2023-09-17T14:59:43,42.805,6.029,CST-1368DR,4165,4547,11576,01.197,552
2023-09-17T15:02:45,42.805,6.029,CST-1368DR,4165,4546,11572,01.199,553
2023-09-17T15:05:47,42.805,6.029,CST-1368DR,4165,4546,11572,01.199,553
2023-09-17T15:08:48,42.805,6.029,CST-1368DR,4165,4547,11576,01.197,553
2023-09-17T15:11:50,42.805,6.029,CST-1368DR,4165,4546,11573,01.198,553
2023-09-17T15:14:51,42.805,6.029,CST-1368DR,4165,4544,11568,01.200,552
2023-09-17T15:17:53,42.805,6.029,CST-1368DR,4165,4545,11570,01.200,553
2023-09-17T15:20:54,42.805,6.029,CST-1368DR,4165,4545,11571,01.199,553
2023-09-17T15:23:56,42.805,6.029,CST-1368DR,4165,4546,11572,01.199,552
2023-09-17T15:26:58,42.805,6.029,CST-1368DR,4165,4546,11572,01.199,553
2023-09-17T15:29:59,42.805,6.029,CST-1368DR,4165,4545,11569,01.200,552
2023-09-17T15:33:01,42.805,6.029,CST-1368DR,4165,4546,11572,01.199,553
2023-09-17T15:36:02,42.805,6.029,CST-1368DR,4165,4544,11569,01.200,553
2023-09-17T15:39:04,42.805,6.029,CST-1368DR,4165,4546,11574,01.198,552
2023-09-17T15:42:05,42.805,6.029,CST-1368DR,4165,4546,11574,01.198,553
2023-09-17T15:45:07,42.805,6.029,CST-1368DR,4165,4545,11571,01.199,553
2023-09-17T15:48:09,42.805,6.029,CST-1368DR,4165,4546,11574,01.198,553
2023-09-17T15:51:10,42.805,6.029,CST-1368DR,4165,4547,11574,01.198,553
2023-09-17T15:54:12,42.805,6.029,CST-1368DR,4165,4547,11574,01.198,553
2023-09-17T15:57:13,42.805,6.029,CST-1368DR,4165,4546,11573,01.198,552
2023-09-17T16:00:15,42.805,6.029,CST-1368DR,4165,4545,11571,01.199,552
2023-09-17T16:03:16,42.805,6.029,CST-1368DR,4165,4545,11571,01.199,553
2023-09-17T16:06:18,42.805,6.029,CST-1368DR,4165,4546,11572,01.199,552
2023-09-17T16:09:20,42.805,6.029,CST-1368DR,4165,4545,11569,01.200,552
2023-09-17T16:12:21,42.805,6.029,CST-1368DR,4165,4545,11570,01.200,553
2023-09-17T16:15:23,42.805,6.029,CST-1368DR,4165,4545,11571,01.199,552
2023-09-17T16:18:24,42.805,6.029,CST-1368DR,4165,4546,11573,01.198,553
2023-09-17T16:21:26,42.805,6.029,CST-1368DR,4165,4546,11572,01.199,552
2023-09-17T16:24:28,42.805,6.029,CST-1368DR,4165,4542,11563,01.202,552
2023-09-17T16:27:29,42.805,6.029,CST-1368DR,4165,4545,11570,01.200,553
2023-09-17T16:30:32,42.805,6.029,CST-1368DR,4165,4544,11567,01.201,552
2023-09-17T16:33:34,42.805,6.029,CST-1368DR,4165,4545,11570,01.200,553
2023-09-17T16:36:35,42.805,6.029,CST-1368DR,4165,4545,11570,01.200,552